[Iaude] MPEC P80: 2024 PH1 [a=1.42,e=0.30,i=19.6,H=23.0]
    mpec at cfa.harvard.edu 
    mpec at cfa.harvard.edu
       
    Tue Aug  6 18:18:08 EDT 2024
    
    
  
M.P.E.C. 2024-P80                                Issued 2024 August 6, 22:16 UT
     The Minor Planet Electronic Circulars contain information on unusual
         minor planets, routine data on comets and natural satellites,
         and occasional editorial announcements.  They are published
    on behalf of Division F of the International Astronomical Union by the
          Minor Planet Center, Smithsonian Astrophysical Observatory,
                          Cambridge, MA 02138, U.S.A.
			  
             Prepared using the Tamkin Foundation Computer Network
                              MPC at CFA.HARVARD.EDU
            URL https://www.minorplanetcenter.net/    ISSN 1523-6714
                                    2024 PH1                                    
Observations:
     K24P01H* C2024 08 05.29964917 19 48.862+03 36 29.12         20.47wXEP080F52
     K24P01H  C2024 08 05.30898117 19 47.269+03 38 06.15         20.35wXEP080F52
     K24P01H  C2024 08 05.31831717 19 45.676+03 39 43.26         20.32wXEP080F52
     K24P01H  C2024 08 05.32755817 19 44.114+03 41 19.27         20.42wXEP080F52
     K24P01H  C2024 08 05.43415017 19 26.547+03 59 45.96         20.44GVEP080F51
     K24P01H  C2024 08 05.43479117 19 26.437+03 59 52.63         20.54GVEP080F51
     K24P01H KC2024 08 05.47262217 19 22.826+04 07 41.59         20.4 GVEP080474
     K24P01H KC2024 08 05.47463017 19 22.522+04 08 02.08               VEP080474
     K24P01H KC2024 08 05.47663817 19 22.195+04 08 22.67               VEP080474
     K24P01H KC2024 08 05.47964917 19 21.739+04 08 54.28         20.8 GVEP080474
     K24P01H KC2024 08 05.48366617 19 21.074+04 09 35.86         19.8 GVEP080474
     K24P01H KB2024 08 05.88251817 18 26.82 +05 16 32.3          20.2 GXEP080I93
     K24P01H KB2024 08 05.88542217 18 26.34 +05 17 02.5          20.1 GXEP080I93
     K24P01H KB2024 08 05.88831117 18 25.88 +05 17 31.9          19.8 GXEP080I93
     K24P01H KC2024 08 05.90550817 18 22.39 +05 20 26.5          20.7 GXEP080L01
     K24P01H KC2024 08 05.90862517 18 21.91 +05 20 58.9          20.4 GXEP080L01
     K24P01H KC2024 08 05.91174717 18 21.48 +05 21 30.9          19.9 GXEP080L01
     K24P01H KB2024 08 05.93942 17 18 17.44 +05 26 13.9                VEP080204
     K24P01H HB2024 08 05.95959 17 18 14.35 +05 29 40.2          20.5 GVEP080204
     K24P01H KC2024 08 06.10632817 17 56.41 +05 54 50.2          20.5 GVEP080H21
     K24P01H KC2024 08 06.10974217 17 55.88 +05 55 24.9          20.9 GVEP080H21
     K24P01H KC2024 08 06.11201717 17 55.51 +05 55 48.2          20.9 GVEP080H21
     K24P01H KC2024 08 06.89492817 16 09.941+08 07 25.03         20.4 GVEP080J95
     K24P01H KC2024 08 06.90858417 16 07.882+08 09 41.76         21.0 GVEP080J95
Observer details:
204 Schiaparelli Observatory.  Observer L. Buzzi.  0.84-m f/3.5 reflector +
    CMO.
474 Mount John Observatory, Lake Tekapo.  Observers A. C. Gilmore, P. M.
    Kilmartin.  Measurer P. M. Kilmartin.  0.6-m f/6.3 Reflector + CCD.
F51 Pan-STARRS 1, Haleakala.  Observers J. Herman, T. Lowe, P. Minguez, A.
    Schultz, I. Smith.  Measurers K. Chambers, T. de Boer, J. Fairlamb, H.
    Gao, M. Huber, C.-C. Lin, E. Magnier, Y. Ramanjooloo, R. Wainscoat, R.
    Weryk.  1.8-m Ritchey-Chretien + CCD.
F52 Pan-STARRS 2, Haleakala.  Observers J. Herman, T. Lowe, P. Minguez, A.
    Schultz, I. Smith.  Measurers K. Chambers, T. de Boer, J. Fairlamb, H.
    Gao, M. Huber, C.-C. Lin, E. Magnier, Y. Ramanjooloo, R. Wainscoat, R.
    Weryk.  1.8-m Ritchey-Chretien + CCD.
H21 Astronomical Research Observatory, Westfield.  Observer R. Holmes.
    Measurers T. Linder, R. Holmes.  0.81-m f/4.0 astrograph + CCD.
I93 St Pardon de Conques.  Observer F. Losse.  0.40-m f/3.7 reflector + CMO.
J95 Great Shefford.  Observer P. Birtwhistle.  0.41-m f/6.3 Schmidt-Cassegrain
    + CCD.
L01 Visnjan Observatory, Tican.  Observers K. Korlevic, I. Forkapa, L.
    Ivanovic, E. Matika, I. Novotny, I. Paleka, E. Pettarin, M. Spoler.
    Measurer I. Paleka.  1.0-m f/2.9 reflector + CCD.
Orbital elements:
2024 PH1                                                 Earth MOID = 0.0848 AU
Epoch 2024 Oct. 17.0 TT = JDT 2460600.5                 MPC                     
M  14.86430              (2000.0)            P               Q                  
n   0.58042259     Peri.   59.18140     +0.95687375     -0.01794314             
a   1.4233330      Node   300.37362     -0.14510568     +0.83514091             
e   0.3048925      Incl.   19.63805     +0.25166838     +0.54974331             
P   1.70           H   23.08          G   0.15           U   8                  
Residuals in seconds of arc
240805 F52  0.0   0.2+    240805 474  0.2+  0.4-    240805 L01  0.1+  0.0
240805 F52  0.0   0.0     240805 474  0.5+  0.0     240805 204  0.0   0.2-
240805 F52  0.0   0.0     240805 474  0.1+  0.0     240805 204  0.1-  0.2-
240805 F52  0.1+  0.2-    240805 I93  0.1-  0.0     240806 H21  0.1-  0.1+
240805 F51  0.1+  0.0     240805 I93  0.4-  0.4+    240806 H21  0.2+  0.0
240805 F51  0.0   0.1+    240805 I93  0.4-  0.1+    240806 H21  0.1+  0.1+
240805 474  0.1+  0.1+    240805 L01  0.8-  0.5-    240806 J95  0.6+  0.2-
240805 474  0.3+  0.2-    240805 L01  0.7-  0.0     240806 J95  0.4+  0.3+
Ephemeris:
2024 PH1                 a,e,i = 1.42, 0.30, 20                  q = 0.9894
Date    TT    R. A. (2000) Decl.     Delta      r    Elong.  Phase     V
2024 07 07    19 08 32.3 -55 45 16   0.2147  1.2022   146.8    27.6    21.4
...
2024 07 22    18 05 21.4 -35 59 57   0.1385  1.1373   149.3    27.1    20.3
...
2024 07 30    17 37 00.8 -15 11 14   0.1194  1.1053   136.8    39.0    20.2
...
2024 08 05    17 20 32.3 +02 44 32   0.1196  1.0830   122.2    52.4    20.6
2024 08 06    17 18 11.5 +05 37 15   0.1208  1.0794   119.8    54.7    20.7
2024 08 07    17 15 57.1 +08 25 34   0.1224  1.0759   117.4    56.8    20.7
...
2024 08 13    17 04 31.8 +23 16 50   0.1369  1.0560   104.6    68.2    21.3
...
2024 08 21    16 53 20.0 +37 36 25   0.1657  1.0327    92.7    78.1    22.0
...
2024 09 05    16 37 35.1 +53 19 14   0.2285  1.0016    81.8    85.1    22.9
A. U. Tomatic                (C) Copyright 2024 MPC           M.P.E.C. 2024-P80
    
    
More information about the Iaude
mailing list